Location: Kellogg
(38.0159°N, 90.0546°W)
Time: 16:47:04
(UTC+00:00)

Transit 2A - Pass Details

Date: 18 September 2024
Orbit: 590 x 960 km, 66.7° (Epoch: 07 October)

Event Time Altitude Azimuth Distance (km) Brightness Sun altitude
Rises 08:10:40 0° 337° (NNW) 3,627 9.7 -39.4°
Reaches altitude 10° 08:13:27 10° 344° (NNW) 2,654 9.0 -39.0°
Enters shadow 08:15:25 20° 354° (N) 2,017 8.4 -38.7°
Maximum altitude 08:19:18 41° 54° (NE) 1,270 - -38.1°
Drops below altitude 10° 08:24:41 10° 124° (SE) 2,453 - -37.3°
Sets 08:27:10 0° 132° (SE) 3,326 - -37.0°
